Вернуться в каталог

YAOGAN-39 02B

АктивенВоенныеVLEO
NORAD 57889·PAYLOAD·🇨🇳 China

Запущен Sep 17, 2023 с Xichang Satellite Launch Center

Loading…

Ближайшие Пролёты (ближайшие 24 часа)

TLE

СвежийSource: Space-Track

Эпоха: Sep 14, 2026, 18:53 UTC

1 57889U 23145D   26257.78683815  .00005015  00000-0  24925-3 0  9996
2 57889  34.9921  25.8260 0008439 190.5737 169.4799 15.17016200166502

Отслеживайте YAOGAN-39 02B в реальном времени с AllMySat

Download on the App Store